Weather reports worldwide

Advertisment
Bastia, France (7790): temperature & dewpoint: 19.09.2018 12:00:00 - 25.09.2018 12:00:00 (CEST)Bastia, France (7790): temperature 5cm: 19.09.2018 12:00:00 - 25.09.2018 12:00:00 (CEST)Bastia, France (7790): temperature -20cm & temperature -100cm: 19.09.2018 12:00:00 - 25.09.2018 12:00:00 (CEST)Bastia, France (7790): wind speed & gusts: 19.09.2018 12:00:00 - 25.09.2018 12:00:00 (CEST)Bastia, France (7790): wind direction: 19.09.2018 12:00:00 - 25.09.2018 12:00:00 (CEST)Bastia, France (7790): reduced air pressure: 19.09.2018 12:00:00 - 25.09.2018 12:00:00 (CEST)Bastia, France (7790): visibility: 19.09.2018 12:00:00 - 25.09.2018 12:00:00 (CEST)Bastia, France (7790): sunshine duration: 19.09.2018 12:00:00 - 25.09.2018 12:00:00 (CEST)Bastia, France (7790): precipitation: 19.09.2018 12:00:00 - 25.09.2018 12:00:00 (CEST)
Date & Time tt [°C] td [°C] tt 5cm [°C] tt -20cm [°C] tt -100cm [°C] ff [km/h] ff [kn] fx [km/h] fx [kn] dd ppp [hPa] vv [km] sd [min] rr [mm]
25.09.2018 12:00:00 - - - - - - - - - - - - - -
25.09.2018 11:00:00 22,0 9,5 26,1 24,4 24,2 19 11 32 17 N 1027,5 60 60 0,0
25.09.2018 10:00:00 21,6 9,5 23,5 24,4 24,1 20 11 34 19 NNE 1027,0 55 60 0,0
25.09.2018 09:00:00 21,1 11,4 20,3 24,6 24,2 21 11 33 18 N 1026,2 60 60 0,0
25.09.2018 08:00:00 20,2 12,4 16,9 24,7 24,2 16 9 29 16 N 1025,5 54 27 0,0
25.09.2018 07:00:00 19,6 12,4 14,4 24,7 24,1 14 8 26 14 NNE 1024,8 19 0 0,0
25.09.2018 06:00:00 19,1 12,1 16,1 24,9 24,2 6 3 22 12 N 1024,5 20 0 0,0
25.09.2018 05:00:00 20,7 12,9 18,8 24,9 24,2 13 7 23 12 N 1023,9 60 0 0,0
25.09.2018 04:00:00 21,1 12,8 16,9 25,0 24,2 21 11 29 15 N 1023,6 60 0 0,0
25.09.2018 03:00:00 21,6 10,4 19,3 25,1 24,2 14 8 31 17 NNE 1023,2 20 0 0,0
25.09.2018 02:00:00 22,2 10,3 20,4 25,1 24,2 23 13 33 18 NNE 1022,7 20 0 0,0
25.09.2018 01:00:00 22,9 11,9 21,1 25,1 24,2 18 10 31 17 NNE 1022,1 20 0 0,0
25.09.2018 00:00:00 22,7 12,3 18,0 25,2 24,2 19 10 35 19 NE 1021,2 20 0 0,0
24.09.2018 23:00:00 22,2 14,8 19,7 25,1 24,2 4 2 25 13 SSW 1020,9 60 0 0,0
24.09.2018 22:00:00 23,8 14,5 22,6 25,1 24,2 14 8 34 18 ENE 1020,1 60 0 0,0
24.09.2018 21:00:00 24,0 18,2 22,9 25,0 24,2 22 12 38 20 ENE 1018,7 60 0 0,0
24.09.2018 20:00:00 24,5 22,0 23,6 25,0 24,2 11 6 21 11 N 1017,0 19 0 0,2
24.09.2018 19:00:00 25,3 21,8 24,5 24,9 24,2 7 4 13 7 WNW 1015,9 20 38 0,0
24.09.2018 18:00:00 26,1 22,4 26,6 24,7 24,2 9 5 21 12 NNE 1015,2 33 30 0,0
24.09.2018 17:00:00 25,9 21,8 27,0 24,6 24,2 10 5 19 10 ENE 1015,0 20 14 0,0
24.09.2018 16:00:00 26,5 21,5 28,8 24,6 24,2 6 3 18 10 E 1014,8 18 8 0,0
24.09.2018 15:00:00 27,0 21,1 29,6 24,5 24,2 11 6 23 13 E 1014,9 38 13 0,0
24.09.2018 14:00:00 27,5 22,0 29,6 24,4 24,2 16 9 26 14 E 1014,9 17 39 0,0
24.09.2018 13:00:00 26,6 21,4 29,3 24,4 24,2 16 9 26 14 E 1014,7 20 27 0,0
24.09.2018 12:00:00 27,3 21,3 33,9 24,5 24,2 17 9 28 15 E 1014,4 19 60 0,0
24.09.2018 11:00:00 27,5 21,3 32,6 24,5 24,2 9 5 19 10 ENE 1013,6 60 60 0,0
24.09.2018 10:00:00 25,6 21,5 29,6 24,6 24,2 8 4 14 7 SSE 1013,4 40 60 0,0
24.09.2018 09:00:00 22,8 20,5 21,7 24,7 24,3 4 2 8 5 WSW 1012,8 19 60 0,0
24.09.2018 08:00:00 19,4 18,7 16,8 24,8 24,2 6 4 11 6 SW 1012,2 19 28 0,0
24.09.2018 07:00:00 18,8 18,1 15,7 24,9 24,3 6 3 8 4 WSW 1012,1 13 0 0,0
24.09.2018 06:00:00 19,2 18,2 16,8 24,9 24,3 5 3 11 6 WSW 1012,1 16 0 0,0
24.09.2018 05:00:00 19,8 18,6 17,7 25,0 24,2 3 2 15 8 W 1012,3 18 0 0,0
24.09.2018 04:00:00 20,2 19,0 19,1 25,1 24,2 9 5 15 8 WSW 1012,7 16 0 0,0
24.09.2018 03:00:00 20,7 19,5 19,2 25,1 24,2 9 5 14 7 WSW 1013,4 18 0 0,0
24.09.2018 02:00:00 20,7 19,7 18,9 25,2 24,3 9 5 16 8 S 1013,9 14 0 0,0
24.09.2018 01:00:00 20,3 19,1 19,0 25,2 24,3 6 4 8 4 SSW 1015,0 11 0 0,0
24.09.2018 00:00:00 21,0 19,3 18,8 25,2 24,2 5 3 18 10 WSW 1015,7 17 0 0,0
23.09.2018 23:00:00 21,5 19,6 19,0 25,2 24,3 3 2 13 7 WNW 1016,3 20 0 0,0
23.09.2018 22:00:00 22,8 19,2 20,7 25,2 24,3 8 4 12 7 NNW 1016,7 20 0 0,0
23.09.2018 21:00:00 23,2 18,7 20,9 25,2 24,3 0 0 11 6 N 1016,9 20 0 0,0
23.09.2018 20:00:00 23,8 18,7 23,1 25,1 24,3 9 5 19 10 SE 1016,8 60 0 0,0
23.09.2018 19:00:00 24,4 20,3 24,2 25,1 24,3 12 7 27 15 SE 1016,7 41 0 0,0
23.09.2018 18:00:00 24,7 21,2 25,0 25,0 24,3 15 8 30 16 SE 1017,0 32 0 0,0
23.09.2018 17:00:00 24,8 21,1 25,1 24,9 24,3 16 9 26 14 SE 1017,5 8 0 0,0
23.09.2018 16:00:00 24,9 21,0 25,9 24,8 24,3 16 8 25 14 SE 1017,9 20 0 0,0
23.09.2018 15:00:00 25,6 21,1 28,1 24,7 24,3 16 8 25 14 SE 1018,2 20 0 0,0
23.09.2018 14:00:00 26,0 20,8 29,9 24,7 24,3 13 7 23 12 SE 1018,8 44 0 0,0
23.09.2018 13:00:00 26,3 20,6 31,5 24,7 24,3 10 6 24 13 ESE 1019,2 19 28 0,0
23.09.2018 12:00:00 26,6 20,4 31,8 24,7 24,3 10 5 27 15 ENE 1019,4 20 40 0,0
23.09.2018 11:00:00 26,8 20,2 29,3 24,8 24,3 7 4 16 9 ENE 1019,3 20 50 0,0
23.09.2018 10:00:00 25,8 20,4 27,9 24,9 24,3 3 2 10 5 SSE 1019,0 20 60 0,0
23.09.2018 09:00:00 22,8 19,4 22,0 24,9 24,3 6 4 11 6 SSW 1018,6 29 60 0,0
23.09.2018 08:00:00 20,0 18,5 18,5 25,0 24,3 6 3 9 5 SW 1018,4 20 20 0,0
23.09.2018 07:00:00 19,5 18,0 18,7 25,1 24,3 8 4 9 5 SW 1018,2 19 0 0,0
23.09.2018 06:00:00 20,0 18,5 18,4 25,1 24,3 6 3 9 5 SW 1018,1 30 0 0,0
23.09.2018 05:00:00 19,6 18,3 18,6 25,2 24,3 7 4 9 5 SSW 1018,1 18 0 0,0
23.09.2018 04:00:00 20,4 18,7 19,3 25,2 24,3 6 3 10 5 SSW 1018,2 18 0 0,0
23.09.2018 03:00:00 21,0 18,8 20,1 25,3 24,3 7 4 10 5 SW 1018,4 20 0 0,0
23.09.2018 02:00:00 21,2 19,1 20,2 25,3 24,3 5 3 10 6 WSW 1018,5 20 0 0,0
23.09.2018 01:00:00 21,6 19,5 20,4 25,4 24,4 7 4 9 5 SW 1018,5 20 0 0,0
23.09.2018 00:00:00 21,5 19,2 19,9 25,4 24,3 5 3 8 4 WSW 1018,4 20 0 0,0
22.09.2018 23:00:00 21,3 19,2 19,6 25,4 24,3 5 3 9 5 SW 1018,4 20 0 0,0
22.09.2018 22:00:00 22,4 19,2 19,5 25,4 24,3 4 2 16 8 W 1018,2 32 0 0,0
22.09.2018 21:00:00 22,5 18,9 20,0 25,3 24,3 5 3 19 10 WSW 1017,8 34 0 0,0
22.09.2018 20:00:00 24,2 18,2 23,1 25,2 24,4 14 7 29 15 NNW 1017,1 47 0 0,0
22.09.2018 19:00:00 24,8 18,0 24,2 25,1 24,3 20 11 31 17 NNW 1016,6 50 0 0,0
22.09.2018 18:00:00 26,2 20,5 26,7 25,0 24,3 18 10 41 22 NNW 1016,2 38 7 0,0
22.09.2018 17:00:00 26,3 21,9 28,9 24,8 24,3 16 9 37 20 N 1016,2 20 18 0,0
22.09.2018 16:00:00 27,1 21,8 31,0 24,7 24,4 14 8 45 24 N 1016,2 19 20 0,0
22.09.2018 15:00:00 27,0 21,5 31,9 24,7 24,4 16 9 27 15 NE 1016,4 33 52 0,0
22.09.2018 14:00:00 27,5 22,2 35,9 24,6 24,4 17 9 39 21 NNE 1016,4 20 60 0,0
22.09.2018 13:00:00 27,4 22,4 34,8 24,7 24,4 16 9 33 18 N 1016,6 20 58 0,0
22.09.2018 12:00:00 27,1 22,1 34,5 24,7 24,4 11 6 21 11 NE 1016,6 17 60 0,0
22.09.2018 11:00:00 27,2 22,4 32,4 24,8 24,4 11 6 19 11 ESE 1016,3 32 57 0,0
22.09.2018 10:00:00 26,3 17,6 28,6 24,9 24,4 4 2 8 5 SE 1016,3 20 58 0,0
22.09.2018 09:00:00 23,5 17,0 22,5 25,0 24,4 2 1 9 5 S 1016,0 20 60 0,0
22.09.2018 08:00:00 20,5 15,9 18,9 25,1 24,4 6 4 18 10 SSW 1015,6 46 30 0,0
22.09.2018 07:00:00 20,0 15,4 18,6 25,2 24,4 11 6 21 11 SSW 1014,9 41 0 0,0
22.09.2018 06:00:00 19,8 15,9 16,7 25,2 24,4 10 5 14 7 SSW 1015,0 38 0 0,0
22.09.2018 05:00:00 19,2 16,4 16,8 25,3 24,4 6 3 11 6 SW 1015,3 34 0 0,0
22.09.2018 04:00:00 19,9 16,3 17,6 25,4 24,4 3 2 18 10 SW 1015,3 32 0 0,0
22.09.2018 03:00:00 21,3 16,5 19,6 25,5 24,4 11 6 18 10 S 1015,5 40 0 0,0
22.09.2018 02:00:00 20,8 16,8 19,6 25,6 24,4 11 6 22 12 S 1015,8 36 0 0,0
22.09.2018 01:00:00 21,0 17,0 19,5 25,6 24,4 12 6 22 12 S 1016,1 35 0 0,0
22.09.2018 00:00:00 20,8 17,4 18,3 25,6 24,4 9 5 20 11 S 1016,6 26 0 0,0
21.09.2018 23:00:00 21,0 17,8 17,4 25,6 24,4 8 4 16 8 SSW 1016,5 31 0 0,0
21.09.2018 22:00:00 20,0 18,3 18,0 25,6 24,4 6 3 11 6 S 1016,4 14 0 0,0
21.09.2018 21:00:00 21,5 19,2 19,3 25,5 24,4 4 2 10 5 W 1016,1 12 0 0,0
21.09.2018 20:00:00 22,9 20,1 19,0 25,3 24,4 3 2 8 5 S 1015,5 6 0 0,0
21.09.2018 19:00:00 25,2 20,5 24,5 25,2 24,5 4 2 17 9 SSE 1015,2 19 50 0,0
21.09.2018 18:00:00 26,7 19,8 30,7 25,1 24,4 10 6 19 11 SE 1015,2 27 60 0,0
21.09.2018 17:00:00 27,2 20,0 33,1 24,9 24,4 13 7 23 12 SE 1015,4 27 60 0,0
21.09.2018 16:00:00 28,1 19,3 35,2 24,8 24,4 13 7 21 12 ESE 1015,6 36 60 0,0
21.09.2018 15:00:00 29,5 18,0 38,1 24,8 24,4 10 5 20 11 E 1015,3 20 60 0,0
21.09.2018 14:00:00 29,0 16,5 37,9 24,8 24,5 10 5 22 12 ENE 1015,6 19 60 0,0
21.09.2018 13:00:00 28,9 16,8 37,5 24,7 24,4 10 5 19 10 ENE 1015,9 20 60 0,0
21.09.2018 12:00:00 28,3 19,0 36,5 24,8 24,5 10 5 24 13 NE 1016,1 18 60 0,0
21.09.2018 11:00:00 28,1 17,3 31,6 24,9 24,5 6 4 13 7 N 1016,2 27 60 0,0
21.09.2018 10:00:00 25,5 17,9 26,8 25,0 24,5 8 5 14 8 SSW 1015,9 30 60 0,0
21.09.2018 09:00:00 22,8 17,0 20,6 25,1 24,5 10 5 16 9 SSW 1015,7 60 60 0,0
21.09.2018 08:00:00 20,5 16,5 18,2 25,1 24,4 9 5 15 8 SSW 1015,6 19 31 0,0
21.09.2018 07:00:00 19,8 15,9 18,0 25,3 24,5 9 5 15 8 SW 1015,3 60 0 0,0
21.09.2018 06:00:00 19,5 16,2 17,8 25,3 24,5 8 4 14 7 SW 1015,4 60 0 0,0
21.09.2018 05:00:00 19,6 16,2 17,7 25,5 24,5 7 4 11 6 SSW 1015,5 60 0 0,0
21.09.2018 04:00:00 19,8 16,4 18,0 25,5 24,5 7 4 12 7 SW 1015,5 60 0 0,0
21.09.2018 03:00:00 20,9 16,7 17,3 25,6 24,5 9 5 12 6 SW 1015,8 58 0 0,0
21.09.2018 02:00:00 19,6 17,4 17,8 25,6 24,5 7 4 11 6 SW 1015,9 48 0 0,0
21.09.2018 01:00:00 20,4 16,8 18,0 25,7 24,5 5 3 9 5 WNW 1016,4 56 0 0,0
21.09.2018 00:00:00 20,0 17,4 18,7 25,7 24,5 5 3 11 6 SSW 1016,9 47 0 0,0
20.09.2018 23:00:00 20,2 18,1 19,0 25,7 24,5 7 4 10 6 SW 1017,0 41 0 0,0
20.09.2018 22:00:00 20,7 18,6 19,4 25,7 24,5 7 4 9 5 SW 1017,0 20 0 0,0
20.09.2018 21:00:00 21,7 19,3 19,6 25,6 24,6 5 3 8 5 WSW 1016,8 18 0 0,0
20.09.2018 20:00:00 23,1 19,5 20,5 25,5 24,5 3 2 9 5 W 1016,2 36 0 0,0
20.09.2018 19:00:00 25,5 18,9 24,7 25,3 24,5 4 2 9 5 E 1016,3 46 52 0,0
20.09.2018 18:00:00 26,6 18,2 30,3 25,2 24,5 7 4 17 9 E 1016,3 46 60 0,0
20.09.2018 17:00:00 27,9 18,0 34,1 25,1 24,5 5 3 18 10 N 1016,5 41 60 0,0
20.09.2018 16:00:00 27,3 18,0 32,1 25,0 24,6 9 5 22 12 ENE 1016,8 38 56 0,0
20.09.2018 15:00:00 28,3 18,1 34,5 25,0 24,6 9 5 23 12 NNE 1017,2 40 55 0,0
20.09.2018 14:00:00 27,3 18,3 34,9 24,9 24,6 8 4 21 11 N 1017,7 43 57 0,0
20.09.2018 13:00:00 26,9 19,3 32,5 25,0 24,6 12 6 23 13 N 1018,0 30 52 0,0
20.09.2018 12:00:00 27,3 18,3 32,1 25,0 24,6 13 7 26 14 NNE 1018,4 27 60 0,0
20.09.2018 11:00:00 26,7 19,1 30,4 25,0 24,5 19 10 28 15 N 1018,5 30 60 0,0
20.09.2018 10:00:00 26,1 19,7 25,6 25,2 24,6 16 8 25 14 N 1018,3 34 47 0,0
20.09.2018 09:00:00 22,4 19,6 19,7 25,3 24,6 5 3 9 5 SW 1018,1 44 26 0,0
20.09.2018 08:00:00 20,2 17,8 18,8 25,3 24,6 8 5 16 8 SSW 1017,9 37 6 0,0
20.09.2018 07:00:00 20,1 17,5 18,7 25,4 24,6 8 4 14 8 SSW 1017,7 14 0 0,0
20.09.2018 06:00:00 20,7 17,9 19,3 25,5 24,6 9 5 15 8 WSW 1017,6 53 0 0,0
20.09.2018 05:00:00 20,1 17,9 18,7 25,6 24,6 5 3 13 7 SSW 1017,8 50 0 0,0
20.09.2018 04:00:00 20,1 18,0 18,1 25,7 24,6 9 5 14 7 SW 1017,8 46 0 0,0
20.09.2018 03:00:00 20,0 18,0 18,2 25,8 24,6 8 4 11 6 WSW 1018,2 45 0 0,0
20.09.2018 02:00:00 19,9 18,2 18,6 25,8 24,6 6 4 10 6 SW 1018,5 41 0 0,0
20.09.2018 01:00:00 20,1 18,6 18,4 25,9 24,6 8 4 10 5 SW 1018,7 39 0 0,0
20.09.2018 00:00:00 20,2 18,9 18,5 25,9 24,6 4 2 10 5 SW 1019,0 43 0 0,0
19.09.2018 23:00:00 20,2 19,0 18,9 25,9 24,6 7 4 11 6 WSW 1018,8 20 0 0,0
19.09.2018 22:00:00 20,9 19,6 19,6 25,8 24,6 4 2 10 6 WSW 1018,8 20 0 0,0
19.09.2018 21:00:00 21,7 20,3 19,9 25,8 24,6 6 3 9 5 SSW 1018,6 17 0 0,0
19.09.2018 20:00:00 23,1 21,0 20,5 25,7 24,6 2 1 9 5 ESE 1018,2 9 4 0,0
19.09.2018 19:00:00 24,9 21,0 24,8 25,5 24,6 5 3 9 5 SE 1018,0 54 40 0,0
19.09.2018 18:00:00 25,9 20,7 27,2 25,5 24,6 4 2 14 8 NE 1018,1 51 37 0,0
19.09.2018 17:00:00 25,7 20,9 28,3 25,3 24,7 7 4 20 11 E 1018,0 54 39 0,0
19.09.2018 16:00:00 26,1 20,9 29,0 25,2 24,7 11 6 29 16 NE 1018,1 47 21 0,0
19.09.2018 15:00:00 25,6 20,8 29,7 25,1 24,6 12 7 24 13 NE 1018,5 58 43 0,0
19.09.2018 14:00:00 26,7 21,0 34,7 25,1 24,7 11 6 22 12 ENE 1018,9 60 60 0,0
19.09.2018 13:00:00 26,2 20,5 33,1 25,1 24,6 11 6 19 10 ENE 1019,0 60 60 0,0
19.09.2018 12:00:00 26,2 20,8 32,5 25,2 24,7 10 6 23 12 E 1019,2 56 58 0,0

tt = temperature
td = dewpoint
tt 5cm = temperature 5cm
tt -20cm = temperature -20cm
tt -100cm = temperature -100cm
ff = wind speed
fx = gusts
dd = wind direction
ppp = reduced air pressure
vv = visibility
sd = sunshine duration
rr = precipitation

Next stations